Christmas Island, Christmas Island

4:49 PM +07 on November 25, 2017 (GMT +0700)
Christmas Island

Weather History for YPXM - April, 2013

Change the Weather History Date:

Thursday, April 25, 2013

  Actual Average Record
Temperature  
Mean Temperature 77 °F -  
Max Temperature 79 °F 79 °F 84 °F (2003)
Min Temperature 75 °F 73 °F 71 °F (2015)
Cooling Degree Days 12    
Growing Degree Days 27 (Base 50)    
Moisture  
Dew Point 75 °F    
Average Humidity 94    
Maximum Humidity 100    
Minimum Humidity 74    
Precipitation  
Precipitation 0.12 in - - ()
Sea Level Pressure  
Sea Level Pressure 29.91 in    
Wind  
Wind Speed 6 mph ()    
Max Wind Speed 12 mph    
Max Gust Speed -    
Visibility 5.6 miles    
Events Rain    
Averages and records for this station are not official NWS values.
T = Trace of Precipitation, MM = Missing Value Source: Averaged Metar Reports

Daily Weather History Graph

Daily Weather History Graph

Search for Another Location

Airport or City:

Trip Planner

Search our weather history database for the weather conditions in past years. The results will help you decide how hot, cold, wet, or windy it might be!

Date:

Astronomy

Apr. 25, 2013 Rise Set
Actual Time 6:01 AM +07 5:48 PM +07
Civil Twilight 5:40 AM +07 6:10 PM +07
Nautical Twilight 5:15 AM +07 6:35 PM +07
Astronomical Twilight 4:50 AM +07 7:00 PM +07
Moon 5:23 PM +07 5:13 AM +07
Length of Visible Light 12h 30m
Length of Day
11h 47m
Waxing Gibbous, 99% of the Moon is Illuminated
Apr 25
Waxing Gibbous
Apr 26
Full
May 2
Last Quarter
May 10
New
May 18
First Quarter

Hourly Weather History & Observations

Time (+07) Temp. Dew Point Humidity Pressure Visibility Wind Dir Wind Speed Gust Speed Precip Events Conditions
12:00 AM 77 °F 76 °F 96% 29.91 in 3 mi South 4.6 mph - -  
12:00 AM 77.0 °F 77.0 °F 100% 29.95 in - South 4.6 mph - N/A   Mostly Cloudy
12:02 AM 77.0 °F 77.0 °F 100% 29.95 in - South 5.8 mph - N/A   Mostly Cloudy
12:15 AM 77.0 °F 77.0 °F 100% 29.95 in - South 4.6 mph - N/A   Overcast
12:27 AM 77.0 °F 77.0 °F 100% 29.95 in - South 5.8 mph - N/A   Overcast
12:46 AM 77.0 °F 77.0 °F 100% 29.92 in 2.8 mi South 5.8 mph - N/A   Drizzle
1:00 AM 77 °F 76 °F 96% 29.88 in - South 5.8 mph - -  
1:00 AM 77.0 °F 77.0 °F 100% 29.92 in - South 5.8 mph - N/A   Overcast
1:02 AM 77.0 °F 77.0 °F 100% 29.92 in - South 5.8 mph - N/A   Overcast
1:21 AM 77.0 °F 75.2 °F 94% 29.92 in 3.7 mi SSE 5.8 mph - N/A   Overcast
1:34 AM 77.0 °F 75.2 °F 94% 29.92 in - South 5.8 mph - N/A   Overcast
2:00 AM 75.2 °F 75.2 °F 100% 29.89 in 5.6 mi South 5.8 mph - N/A Rain Light Rain
2:17 AM 75.2 °F 75.2 °F 100% 29.89 in 6.2 mi South 5.8 mph - N/A Rain Light Rain
3:00 AM 76 °F 76 °F 99% 29.86 in - SSE 5.8 mph - -   Overcast
3:00 AM 77.0 °F 75.2 °F 94% 29.89 in - SSE 5.8 mph - N/A   Overcast
4:00 AM 77 °F 76 °F 98% 29.86 in - SSE 6.9 mph - -  
4:00 AM 77.0 °F 77.0 °F 100% 29.89 in - SSE 6.9 mph - N/A   Overcast
5:00 AM 77.0 °F 77.0 °F 100% 29.89 in - SE 8.1 mph - N/A Rain Light Rain Showers
5:48 AM 77.0 °F 77.0 °F 100% 29.92 in - South 3.5 mph - N/A Rain Rain Showers
6:00 AM 77 °F 76 °F 95% 29.89 in 5 mi SSW 3.5 mph - -  
6:00 AM 77.0 °F 75.2 °F 94% 29.92 in 5.0 mi SSW 3.5 mph - N/A Rain Rain Showers
6:06 AM 77.0 °F 75.2 °F 94% 29.95 in 4.3 mi SSW 2.3 mph - N/A Rain Light Rain Showers
7:00 AM 76 °F 76 °F 98% 29.90 in - South 1.2 mph - -  
7:00 AM 77.0 °F 75.2 °F 94% 29.95 in 6.2 mi South 1.2 mph - N/A   Scattered Clouds
8:00 AM 75.2 °F 73.4 °F 94% 29.95 in - ESE 10.4 mph - N/A Rain Rain
8:30 AM 75.2 °F 73.4 °F 94% 29.95 in - SE 9.2 mph - N/A Rain Light Rain
8:49 AM 75.2 °F 73.4 °F 94% 29.95 in - SE 8.1 mph - N/A Rain Light Rain Showers
9:00 AM 75.2 °F 73.4 °F 94% 29.95 in - SE 8.1 mph - N/A Rain Light Rain Showers
10:00 AM 78 °F 76 °F 93% 29.93 in - ESE 11.5 mph - -  
10:00 AM 77.0 °F 77.0 °F 100% 29.98 in - ESE 11.5 mph - N/A Rain Light Rain
11:00 AM 77.0 °F 77.0 °F 100% 29.95 in 6.2 mi East 8.1 mph - N/A Rain Light Rain
12:00 PM 76 °F 75 °F 94% 29.90 in - NNE 5.8 mph - -   Overcast
12:00 PM 77.0 °F 75.2 °F 94% 29.95 in 6.2 mi NNE 5.8 mph - N/A Rain Light Rain
12:24 PM 77.0 °F 75.2 °F 94% 29.92 in 6.2 mi ENE 4.6 mph - N/A Rain Light Rain
1:00 PM 77 °F 75 °F 90% 29.86 in - ESE 5.8 mph - -  
1:00 PM 77.0 °F 75.2 °F 94% 29.89 in 6.2 mi ESE 5.8 mph - N/A Rain Light Rain
1:56 PM 77.0 °F 75.2 °F 94% 29.89 in 6.2 mi East 9.2 mph - N/A   Mostly Cloudy
2:00 PM 77.0 °F 75.2 °F 94% 29.89 in 6.2 mi East 9.2 mph - N/A   Mostly Cloudy
2:32 PM 77.0 °F 73.4 °F 89% 29.86 in 6.2 mi NE 8.1 mph - N/A   Scattered Clouds
3:00 PM 78 °F 72 °F 78% 29.82 in - ENE 6.9 mph - -  
3:00 PM 77.0 °F 73.4 °F 89% 29.86 in 6.2 mi ENE 6.9 mph - N/A   Unknown
4:00 PM 79 °F 72 °F 74% 29.82 in - ENE 5.8 mph - -  
4:00 PM 78.8 °F 71.6 °F 78% 29.86 in 6.2 mi ENE 5.8 mph - N/A   Unknown
5:00 PM 78.8 °F 73.4 °F 83% 29.86 in 6.2 mi East 8.1 mph - N/A   Unknown
6:00 PM 78 °F 75 °F 89% 29.84 in - East 8.1 mph - -  
6:05 PM 78.8 °F 75.2 °F 89% 29.89 in 6.2 mi East 8.1 mph - N/A   Mostly Cloudy
7:00 PM 78 °F 76 °F 92% 29.86 in - East 9.2 mph - -  
7:00 PM 78.8 °F 77.0 °F 94% 29.89 in 6.2 mi East 9.2 mph - N/A   Overcast
8:00 PM 78.8 °F 77.0 °F 94% 29.92 in 6.2 mi East 8.1 mph - N/A   Mostly Cloudy
9:00 PM 79 °F 76 °F 89% 29.93 in - East 8.1 mph - -   Overcast
9:00 PM 78.8 °F 77.0 °F 94% 29.95 in 6.2 mi East 8.1 mph - N/A   Overcast
10:00 PM 78 °F 76 °F 93% 29.92 in - East 8.1 mph - -  
10:00 PM 78.8 °F 77.0 °F 94% 29.95 in 6.2 mi East 8.1 mph - N/A   Mostly Cloudy
11:00 PM 77.0 °F 77.0 °F 100% 29.95 in 6.2 mi ESE 6.9 mph - N/A   Overcast